Slayton, MN

3:27 PM CST on January 20, 2018 (GMT -0600)
Slayton

Weather History for KDVP - October, 2013

Change the Weather History Date:

Monday, October 21, 2013

  Actual Average (KOTG) Record (KOTG)
Temperature  
Mean Temperature 35 °F -  
Max Temperature 44 °F 53 °F 82 °F (1978)
Min Temperature 26 °F 35 °F 16 °F (1982)
Degree Days  
Heating Degree Days 30    
Moisture  
Dew Point 27 °F    
Average Humidity 74    
Maximum Humidity 94    
Minimum Humidity 46    
Precipitation  
Precipitation 0.00 in - - ()
Sea Level Pressure  
Sea Level Pressure 29.98 in    
Wind  
Wind Speed 8 mph (WNW)    
Max Wind Speed 20 mph    
Max Gust Speed 26 mph    
Visibility 10 miles    
Events      
Averages and records for this station are not official NWS values.
T = Trace of Precipitation, MM = Missing Value Source: NWS Daily Summary

Daily Weather History Graph

Daily Weather History Graph

Search for Another Location

Airport or City:

Trip Planner

Search our weather history database for the weather conditions in past years. The results will help you decide how hot, cold, wet, or windy it might be!

Date:

Astronomy

Oct. 21, 2013 Rise Set
Actual Time 7:45 AM CDT 6:29 PM CDT
Civil Twilight 7:16 AM CDT 6:58 PM CDT
Nautical Twilight 6:42 AM CDT 7:31 PM CDT
Astronomical Twilight 6:09 AM CDT 8:05 PM CDT
Moon 8:17 PM CDT (10/21) 10:26 AM CDT (10/21)
Length of Visible Light 11h 42m
Length of Day
10h 43m
Waning Gibbous, 92% of the Moon is Illuminated
Oct 21
Waning Gibbous
Oct 26
Last Quarter
Nov 3
New
Nov 9
First Quarter
Nov 17
Full

Hourly Weather History & Observations

Time (CDT) Temp. Windchill Dew Point Humidity Pressure Visibility Wind Dir Wind Speed Gust Speed Precip Events Conditions
12:13 AM 31.6 °F 24.4 °F 28.8 °F 89% 29.98 in 10.0 mi NW 8.1 mph - N/A   Clear
12:33 AM 31.1 °F 23.1 °F 28.0 °F 88% 29.98 in 10.0 mi NW 9.2 mph - N/A   Clear
12:54 AM 30.0 °F 23.2 °F 26.6 °F 87% 29.99 in 10.0 mi WNW 6.9 mph - N/A   Clear
1:13 AM 29.1 °F 21.3 °F 26.2 °F 89% 29.99 in 10.0 mi WNW 8.1 mph - N/A   Clear
1:33 AM 27.5 °F 21.1 °F 25.2 °F 91% 29.99 in 10.0 mi WNW 5.8 mph - N/A   Clear
1:54 AM 26.6 °F 21.2 °F 25.2 °F 94% 29.99 in 10.0 mi NW 4.6 mph - N/A   Mostly Cloudy
2:13 AM 28.4 °F 21.2 °F 27.0 °F 94% 29.99 in 10.0 mi NW 6.9 mph - N/A   Overcast
2:32 AM 30.0 °F 24.1 °F 27.0 °F 88% 29.99 in 10.0 mi WNW 5.8 mph - N/A   Overcast
2:53 AM 30.7 °F 24.9 °F 26.6 °F 85% 30.00 in 10.0 mi West 5.8 mph - N/A   Overcast
3:13 AM 31.1 °F 23.7 °F 26.2 °F 82% 30.00 in 10.0 mi West 8.1 mph - N/A   Overcast
3:34 AM 30.7 °F 24.1 °F 26.6 °F 85% 30.00 in 10.0 mi West 6.9 mph - N/A   Overcast
3:53 AM 30.9 °F 24.3 °F 27.1 °F 86% 30.00 in 10.0 mi West 6.9 mph - N/A   Overcast
4:13 AM 30.6 °F 23.8 °F 27.5 °F 88% 30.00 in 10.0 mi WSW 6.9 mph - N/A   Overcast
4:33 AM 30.7 °F 24.1 °F 28.0 °F 90% 30.00 in 10.0 mi WSW 6.9 mph - N/A   Overcast
4:53 AM 31.1 °F 26.4 °F 28.0 °F 88% 29.99 in 10.0 mi West 4.6 mph - N/A   Overcast
5:13 AM 31.3 °F 24.7 °F 28.0 °F 88% 30.00 in 10.0 mi West 6.9 mph - N/A   Overcast
5:33 AM 31.5 °F 22.9 °F 28.4 °F 88% 30.00 in 10.0 mi West 10.4 mph - N/A   Overcast
5:53 AM 31.8 °F 24.6 °F 27.9 °F 85% 30.00 in 10.0 mi West 8.1 mph - N/A   Overcast
6:13 AM 32.0 °F 24.2 °F 27.3 °F 83% 30.00 in 10.0 mi West 9.2 mph - N/A   Overcast
6:33 AM 32.0 °F 24.8 °F 27.3 °F 83% 30.00 in 10.0 mi West 8.1 mph - N/A   Overcast
6:53 AM 32.0 °F 25.6 °F 27.7 °F 84% 30.00 in 10.0 mi West 6.9 mph - N/A   Overcast
7:13 AM 32.0 °F 24.8 °F 28.2 °F 86% 30.00 in 10.0 mi West 8.1 mph - N/A   Overcast
7:33 AM 32.0 °F 24.8 °F 28.4 °F 87% 30.00 in 10.0 mi West 8.1 mph - N/A   Overcast
7:53 AM 32.0 °F 25.6 °F 28.8 °F 88% 30.00 in 10.0 mi West 6.9 mph - N/A   Overcast
8:13 AM 32.0 °F 27.5 °F 29.3 °F 90% 30.01 in 10.0 mi West 4.6 mph - N/A   Overcast
8:33 AM 32.0 °F 25.6 °F 29.1 °F 89% 30.01 in 10.0 mi West 6.9 mph - N/A   Overcast
8:52 AM 32.4 °F 24.6 °F 28.9 °F 87% 30.01 in 10.0 mi West 9.2 mph - N/A   Overcast
9:14 AM 32.9 °F 25.3 °F 29.1 °F 86% 30.02 in 10.0 mi West 9.2 mph - N/A   Overcast
9:33 AM 33.1 °F 26.1 °F 29.7 °F 87% 30.02 in 10.0 mi West 8.1 mph - N/A   Overcast
9:53 AM 33.8 °F 25.3 °F 29.1 °F 83% 30.02 in 10.0 mi WNW 11.5 mph - N/A   Overcast
10:14 AM 34.3 °F 27.0 °F 28.9 °F 81% 30.02 in 10.0 mi WNW 9.2 mph - N/A   Overcast
10:33 AM 35.2 °F 29.5 °F 28.6 °F 77% 30.01 in 10.0 mi West 6.9 mph - N/A   Overcast
10:53 AM 36.3 °F 26.8 °F 28.0 °F 72% 30.00 in 10.0 mi NW 16.1 mph - N/A   Mostly Cloudy
11:14 AM 36.5 °F 27.8 °F 26.4 °F 67% 30.00 in 10.0 mi WNW 13.8 mph 19.6 mph N/A   Overcast
11:34 AM 36.9 °F 28.2 °F 25.7 °F 64% 30.00 in 10.0 mi WNW 13.8 mph - N/A   Overcast
11:53 AM 36.9 °F 28.7 °F 25.7 °F 64% 30.00 in 10.0 mi WNW 12.7 mph 18.4 mph N/A   Overcast
12:13 PM 37.8 °F 29.0 °F 25.3 °F 61% 30.00 in 10.0 mi NW 15.0 mph - N/A   Overcast
12:34 PM 38.7 °F 31.4 °F 25.3 °F 59% 29.99 in 10.0 mi NW 11.5 mph - N/A   Overcast
12:54 PM 39.0 °F 29.6 °F 24.4 °F 56% 29.99 in 10.0 mi WNW 18.4 mph 23.0 mph N/A   Mostly Cloudy
1:13 PM 39.6 °F 31.7 °F 24.6 °F 55% 29.98 in 10.0 mi NW 13.8 mph 20.7 mph N/A   Overcast
1:33 PM 39.4 °F 31.1 °F 24.4 °F 55% 29.98 in 10.0 mi NW 15.0 mph - N/A   Mostly Cloudy
1:53 PM 41.2 °F 32.4 °F 24.8 °F 52% 29.97 in 10.0 mi NW 18.4 mph 23.0 mph N/A   Mostly Cloudy
2:13 PM 41.7 °F 34.1 °F 24.8 °F 51% 29.97 in 10.0 mi WNW 15.0 mph 26.5 mph N/A   Overcast
2:33 PM 43.2 °F 35.9 °F 25.2 °F 49% 29.96 in 10.0 mi WNW 15.0 mph 24.2 mph N/A   Overcast
2:53 PM 43.0 °F 35.4 °F 24.8 °F 49% 29.95 in 10.0 mi WNW 16.1 mph 25.3 mph N/A   Overcast
3:12 PM 44.1 °F 35.9 °F 24.4 °F 46% 29.95 in 10.0 mi West 19.6 mph 24.2 mph N/A   Mostly Cloudy
3:33 PM 42.4 °F 35.3 °F 24.6 °F 49% 29.95 in 10.0 mi WNW 13.8 mph 24.2 mph N/A   Mostly Cloudy
3:53 PM 42.8 °F 37.0 °F 25.3 °F 50% 29.95 in 10.0 mi WNW 10.4 mph - N/A   Mostly Cloudy
4:13 PM 42.8 °F 35.4 °F 24.8 °F 49% 29.95 in 10.0 mi WNW 15.0 mph - N/A   Mostly Cloudy
4:33 PM 43.5 °F 35.8 °F 25.0 °F 48% 29.95 in 10.0 mi WNW 17.3 mph 21.9 mph N/A   Scattered Clouds
4:53 PM 42.3 °F 35.9 °F 25.3 °F 51% 29.95 in 10.0 mi NW 11.5 mph - N/A   Scattered Clouds
5:13 PM 43.0 °F 37.7 °F 25.7 °F 51% 29.95 in 10.0 mi NW 9.2 mph 12.7 mph N/A   Clear
5:33 PM 42.4 °F 35.7 °F 25.5 °F 51% 29.95 in 10.0 mi WNW 12.7 mph - N/A   Clear
5:53 PM 40.5 °F 35.8 °F 25.5 °F 55% 29.95 in 10.0 mi WNW 6.9 mph - N/A   Clear
6:13 PM 38.7 °F 36.3 °F 25.7 °F 60% 29.95 in 10.0 mi NNW 3.5 mph - N/A   Clear
6:33 PM 37.6 °F - 25.7 °F 62% 29.95 in 10.0 mi Calm Calm - N/A   Mostly Cloudy
6:53 PM 37.6 °F - 26.1 °F 63% 29.95 in 10.0 mi Calm Calm - N/A   Overcast
7:13 PM 36.7 °F - 26.1 °F 65% 29.95 in 10.0 mi Calm Calm - N/A   Mostly Cloudy
7:33 PM 35.4 °F - 26.1 °F 69% 29.95 in 10.0 mi Calm Calm - N/A   Scattered Clouds
7:53 PM 35.2 °F 32.4 °F 25.7 °F 68% 29.95 in 10.0 mi NNE 3.5 mph - N/A   Scattered Clouds
8:13 PM 34.3 °F 31.4 °F 26.6 °F 73% 29.96 in 10.0 mi North 3.5 mph - N/A   Mostly Cloudy
8:33 PM 33.6 °F 30.6 °F 26.1 °F 74% 29.95 in 10.0 mi NNE 3.5 mph - N/A   Scattered Clouds
8:53 PM 33.3 °F - 26.2 °F 75% 29.95 in 10.0 mi Calm Calm - N/A   Mostly Cloudy
9:14 PM 33.3 °F - 26.4 °F 76% 29.95 in 10.0 mi Calm Calm - N/A   Overcast
9:33 PM 33.6 °F - 25.5 °F 72% 29.95 in 10.0 mi Calm Calm - N/A   Mostly Cloudy
9:53 PM 32.0 °F - 26.4 °F 80% 29.96 in 10.0 mi Calm Calm - N/A   Scattered Clouds
10:13 PM 32.0 °F - 26.2 °F 79% 29.96 in 10.0 mi Calm Calm - N/A   Clear
10:32 PM 32.0 °F - 25.5 °F 77% 29.96 in 10.0 mi Calm Calm - N/A   Clear
10:53 PM 32.2 °F - 26.1 °F 78% 29.96 in 10.0 mi Calm Calm - N/A   Mostly Cloudy
11:13 PM 32.0 °F - 26.8 °F 81% 29.96 in 10.0 mi Calm Calm - N/A   Overcast
11:32 PM 32.2 °F - 27.1 °F 82% 29.96 in 10.0 mi Calm Calm - N/A   Overcast
11:53 PM 32.0 °F - 28.4 °F 87% 29.96 in 10.0 mi Calm Calm - N/A   Overcast